Hourly Data Report for December 22, 2017

CARBERRY CS
MANITOBA

49°54'20.900" N
99°21'26.800" W
383.50 m
5010547
71170
WZE

Download Data

Hourly Data (December 2017)
Hourly Data Report for December 22, 2017
TIME
LST
Temp Definition
°C
Dew Point Definition
°C
Rel Hum Definition
%
Precip. Amount Definition
mm

Wind Dir Definition
10's deg

Wind Spd Definition
km/h
Visibility Definition
km
Stn Press Definition
kPa
Hmdx Definition


Wind Chill Definition


Weather Definition


00:00 -11.2 -13.3 84 0.0 21 7   96.63   -15 LegendNANA
01:00 -9.7 -12.5 80 0.0 24 13   96.61   -16 LegendNANA
02:00 -9.5 -11.9 82 0.0 25 15   96.61   -16 LegendNANA
03:00 -9.1 -11.5 83 0.0 26 22   96.64   -17 LegendNANA
04:00 -9.6 -12.3 81 0.0 28 22   96.63   -18 LegendNANA
05:00 -10.4 -13.7 77 0.0 28 19   96.67   -18 LegendNANA
06:00
07:00 -13.6 -16.6 78 0.0 29 20   96.82   -22 LegendNANA
08:00 -14.6 -17.6 78 0.0 29 19   96.86   -23 LegendNANA
09:00
10:00 -10.9 -14.6 74 0.0 29 20   97.07   -19 LegendNANA
11:00 -10.3 -14.2 73 0.0 27 22   97.15   -19 LegendNANA
12:00 -10.3 -15.5 66 0.0 30 28   97.17   -20 LegendNANA
13:00 -10.2 -15.2 67 0.0 30 28   97.15   -19 LegendNANA
14:00 -10.2 -14.8 69 0.0 29 24   97.14   -19 LegendNANA
15:00 -9.8 -16.0 60 0.0 31 24   97.11   -18 LegendNANA
16:00 -9.8 -14.9 66 0.0 27 18   97.14   -17 LegendNANA
17:00 -10.3 -15.9 64 0.0 28 22   97.16   -19 LegendNANA
18:00 -10.8 -15.7 67 0.0 27 18   97.19   -18 LegendNANA
19:00 -13.2 -17.8 69 0.0 27 20   97.23   -22 LegendNANA
20:00 -14.1 -18.5 69 0.0 28 22   97.22   -23 LegendNANA
21:00 -15.5 -19.4 72 0.0 27 20   97.24   -25 LegendNANA
22:00 -16.0 -20.1 71 0.0 28 21   97.26   -26 LegendNANA
23:00 -16.4 -20.5 70 0.0 28 21   97.31   -26 LegendNANA

Notes on Data Quality.

Legend

  • E = Estimated
  • M = Missing
  • NA = Not Available*
  • [empty] = Indicates an unobserved value
Date modified: